map of IEV home
IEV - Airport
Location
City:  Kiev, Kiev, Ukraine
Name:Zhulyany
ICAO:UKKK
IATA:IEV

Details
Type:Airport (Aerodrome, Airfield)
Use:Public/Civil, International (customs port of entry)
Latitude:5024'06"N (50.401694)
Longitude:3026'59"E (30.449697)
Elevation:586 ft (179 m)
Variation:7.65E (WMM2015 magnetic declination)
0.12 annual change
Runways:1
Longest:5905 × 161 ft (1800 × 49 m), paved

Time
Time Zone:UTC+2 (DST+3)
Local Time:

Weather
METAR:UKKK 260400Z 07006MPS CAVOK 16/07 Q1025 R08/CLRD70 NOSIG
TAF:UKKK 252303Z 2600/2624 06005G11MPS 9999 SCT030
TEMPO 2600/2606 2000 BR SCT007
BECMG 2606/2608 09007G13MPS

Related Locations
Nearby:
Farthest:CHT: 11099 mi / 17862 km
Waitangi [Tuuta], CIT, NZ

Find:

   beyond  
but within

Other Information
Maps:
NOTAMs:
Links:
Sources:

  
flag of Ukraine
flag of Kiev
flag of Kiev
  

Sectional Chart

Flight Planning
at skyvector.com

Satellite Image

Google Maps Satellite view

 

Copyright © 2004-2018 Karl L. Swartz. All rights reserved.
The Great Circle Mapper name and logo are trademarks of the Great Circle Mapper.
All other trademarks mentioned herein belong to their respective owners.
Please see credits for attibutions and further copyright information.

  Follow gcmap on Facebook Follow gcmap on Twitter Follow gcmap on Google+ GCmap on LinkedIn

hCard Microformat

Geo Microformat